Preview of NWS' New Version of Forecast
This preview is not operational and should not be used for support decisions.

Regional Weather Roundup (RWR)

Issued by National Weather Service (NWS)

                            
000
ASUS43 KBIS 200910
RWRND 

NORTH DAKOTA REGIONAL WEATHER ROUNDUP
NATIONAL WEATHER SERVICE BISMARCK ND
400 AM CDT THU JUN 20 2019

NOTE: "FAIR" INDICATES FEW OR NO CLOUDS BELOW 12,000 FEET WITH NO
SIGNIFICANT WEATHER AND/OR OBSTRUCTIONS TO VISIBILITY.


NDZ001>003-009>011-017-201000-
NORTHWEST NORTH DAKOTA
  
CITY           SKY/WX    TMP DP  RH WIND       PRES   REMARKS
WILLISTON      RAIN      57  55  93 SE7       29.66F FOG              
MINOT          CLOUDY    56  51  84 E6        29.71S                  
MINOT AFB      CLOUDY    55  50  84 E7        29.69F                  
$$
 
NDZ018>021-031>035-040>046-201000-
SOUTHWEST NORTH DAKOTA
  
CITY           SKY/WX    TMP DP  RH WIND       PRES   REMARKS
BISMARCK       CLOUDY    57  54  89 E9        29.69S                  
DICKINSON      LGT RAIN  54  52  93 N5        29.67S                  
GARRISON         N/A     57  52  83 SE14      29.68F                  
HETTINGER ARPT CLOUDY    52  52 100 SE5       29.69F                  
$$
 
NDZ004>008-012>016-024-026-027-054-201000-
NORTHEAST NORTH DAKOTA
  
CITY           SKY/WX    TMP DP  RH WIND       PRES   REMARKS
GRAND FORKS    CLOUDY    59  55  87 W3        29.75F                  
GRND FRKS AFB  CLOUDY    57  57 100 CALM      29.76F                  
DEVILS LAKE    CLOUDY    60  52  74 SE6       29.75F                  
$$
 
NDZ022-023-025-028>030-036>039-047>053-201000-
SOUTHEAST NORTH DAKOTA
  
CITY           SKY/WX    TMP DP  RH WIND       PRES   REMARKS
FARGO          LGT RAIN  59  57  93 E6        29.74F                  
JAMESTOWN      CLOUDY    58  55  90 E12       29.71S                  
$$